This demonstration page uses our WeatherBlox Daily Observations layout. Learn more.

Left ArrowRight Arrow

34.74481, -87.66753

Hourly Observations for December 23, 2018

Temp ( °F °C ) Dew Point ( °F °C ) Humidity (%) Winds ( mph kmh ) Pressure ( in mb ) Visibility ( mi km ) Precip ( " mm )
12:53 am 00:53 Cloudy 50 10 37 2.8 61 61 SSE 6 9 30.11 1020 10 16 0.00 0.00
1:53 am 01:53 undefined N/A N/A N/A undefined N/A N/A N/A 0.00 0.00
2:53 am 02:53 Cloudy 50 10 39 3.9 66 66 S 5 7 30.09 1019 10 16 0.00 0.00
3:53 am 03:53 Cloudy 51 10.6 41 5 69 69 S 7 11 30.07 1018 10 16 0.00 0.00
4:00 am 04:00 Cloudy 51 10.6 42 5.6 71 71 S 6 9 30.06 1018 10 16 0.00 0.00
4:53 am 04:53 Cloudy 50 10 44 6.7 80 80 S 6 9 30.06 1018 10 16 0.00 0.03
5:53 am 05:53 Cloudy 50 10 45 7.2 83 83 S 9 15 30.06 1018 10 16 0.00 0.03
6:53 am 06:53 Cloudy 50 10 45 7.2 83 83 S 5 7 30.07 1018 10 16 0.00 0.00
7:35 am 07:35 Cloudy 50 10 46 7.8 86 86 SSE 5 7 30.09 1019 10 16 0.00 0.00
7:53 am 07:53 Cloudy 50 10 46 7.8 86 86 SW 5 7 30.09 1019 10 16 0.00 0.00
8:53 am 08:53 Cloudy 52 11.1 48 8.9 86 86 SW 12 19 30.09 1019 10 16 0.00 0.00
9:53 am 09:53 Cloudy 53 11.7 48 8.9 83 83 SSW 9 15 30.09 1019 10 16 0.00 0.00
10:43 am 10:43 Cloudy 54 12.2 49 9.4 83 83 WSW 14 22 30.09 1019 10 16 0.00 0.00
10:53 am 10:53 Cloudy 54 12.2 50 10 87 87 WSW 13 20 30.08 1019 10 16 0.00 0.00
11:24 am 11:24 Cloudy 55 12.8 50 10 83 83 WSW 14 22 30.09 1019 10 16 0.00 0.00
11:53 am 11:53 Cloudy 54 12.2 50 10 87 87 W 21 33 30.08 1019 9 14 0.00 0.00
12:53 pm 12:53 Cloudy 53 11.7 48 8.9 83 83 WNW 16 26 30.10 1019 10 16 0.00 0.00
1:53 pm 13:53 Cloudy 51 10.6 44 6.7 77 77 NW 8 13 30.15 1021 10 16 0.00 0.00
2:53 pm 14:53 Cloudy 50 10 41 5 71 71 NNW 10 17 30.20 1023 10 16 0.00 0.00
3:53 pm 15:53 Cloudy 48 8.9 39 3.9 71 71 NW 10 17 30.24 1024 10 16 0.00 0.00
4:53 pm 16:53 Cloudy 46 7.8 38 3.3 73 73 NW 9 15 30.27 1025 10 16 0.00 0.00
5:53 pm 17:53 Cloudy 45 7.2 37 2.8 74 74 NNW 8 13 30.29 1026 10 16 0.00 0.00
6:31 pm 18:31 Partly Cloudy 44 6.7 35 1.7 71 71 NNW 6 9 30.30 1026 10 16 0.00 0.00
6:53 pm 18:53 Mostly Cloudy 44 6.7 35 1.7 71 71 N 5 7 30.31 1026 10 16 0.00 0.00
7:53 pm 19:53 Mostly Cloudy 43 6.1 35 1.7 74 74 NNW 5 7 30.34 1027 10 16 0.00 0.00
8:30 pm 20:30 Partly Cloudy 42 5.6 34 1.1 73 73 NNW 6 9 30.36 1028 10 16 0.00 0.00
8:53 pm 20:53 Mostly Cloudy 42 5.6 34 1.1 73 73 NNW 9 15 30.36 1028 10 16 0.00 0.00
9:13 pm 21:13 Partly Cloudy 41 5 34 1.1 76 76 NNW 6 9 30.36 1028 10 16 0.00 0.00
9:34 pm 21:34 Mostly Cloudy 40 4.4 34 1.1 79 79 NNW 6 9 30.39 1029 10 16 0.00 0.00
9:48 pm 21:48 Partly Cloudy 39 4 34 1 81 81 NNW 8 13 30.39 1029 10 16 0.00 0.00
9:53 pm 21:53 Mostly Clear 39 3.9 33 0.6 79 79 N 5 7 30.35 1028 10 16 0.00 0.00
10:53 pm 22:53 Clear 36 2.2 32 0 86 86 W 3 6 30.36 1028 10 16 0.00 0.00
11:53 pm 23:53 Clear 36 2.2 31 -0.6 82 82 Calm 30.35 1028 10 16 0.00 0.00

Powered by AerisWeather